| time (UTC) | temp F | wind direction | speed MPH | gust MPH | rain 1hr in | rain 24hr in | rain mn in | humidity % | barometer mb |
| 20260506105927 | 81 | 125 | 2.0 | 3.0 | 0.00 | 0.00 | 0.00 | 81 | 1019.6 |
| 20260506105424 | 81 | 16 | 1.0 | 7.0 | 0.00 | 0.00 | 0.00 | 82 | 1019.7 |
| 20260506104921 | 81 | 236 | 2.0 | 6.0 | 0.00 | 0.00 | 0.00 | 82 | 1019.8 |
| 20260506104419 | 81 | 315 | 1.0 | 4.0 | 0.00 | 0.00 | 0.00 | 82 | 1019.7 |
| 20260506103917 | 81 | 357 | 1.0 | 2.0 | 0.00 | 0.00 | 0.00 | 82 | 1019.7 |
| 20260506103414 | 81 | 147 | 2.0 | 3.0 | 0.00 | 0.00 | 0.00 | 82 | 1019.8 |
| 20260506102911 | 81 | 16 | 1.0 | 7.0 | 0.00 | 0.00 | 0.00 | 82 | 1019.7 |
| 20260506102409 | 80 | 357 | 1.0 | 2.0 | 0.00 | 0.00 | 0.00 | 83 | 1019.6 |
| 20260506101906 | 80 | 30 | 1.0 | 7.0 | 0.00 | 0.00 | 0.00 | 83 | 1019.4 |
| 20260506101402 | 80 | 353 | 2.0 | 3.0 | 0.00 | 0.00 | 0.00 | 83 | 1019.5 |
| 20260506100859 | 80 | 26 | 3.0 | 6.0 | 0.00 | 0.00 | 0.00 | 82 | 1019.4 |
| 20260506100358 | 80 | 210 | 3.0 | 6.0 | 0.00 | 0.00 | 0.00 | 82 | 1019.3 |
| 20260506095856 | 80 | 240 | 1.0 | 3.0 | 0.00 | 0.00 | 0.00 | 82 | 1019.4 |
| 20260506095354 | 80 | 280 | 0.0 | 2.0 | 0.00 | 0.00 | 0.00 | 82 | 1019.3 |
| 20260506094850 | 80 | 343 | 1.0 | 4.0 | 0.00 | 0.00 | 0.00 | 82 | 1019.1 |
| 20260506094349 | 80 | 0 | 3.0 | 7.0 | 0.00 | 0.00 | 0.00 | 82 | 1019.1 |
| 20260506093846 | 80 | 62 | 2.0 | 6.0 | 0.00 | 0.00 | 0.00 | 82 | 1019.3 |
| 20260506093343 | 80 | 350 | 1.0 | 6.0 | 0.00 | 0.00 | 0.00 | 82 | 1019.1 |
| 20260506092841 | 80 | 76 | 2.0 | 3.0 | 0.00 | 0.00 | 0.00 | 82 | 1019.2 |
| 20260506092339 | 80 | 341 | 1.0 | 4.0 | 0.00 | 0.00 | 0.00 | 82 | 1019.0 |
| 20260506091835 | 80 | 274 | 0.0 | 3.0 | 0.00 | 0.00 | 0.00 | 82 | 1019.1 |
| 20260506091333 | 80 | 330 | 1.0 | 3.0 | 0.00 | 0.00 | 0.00 | 82 | 1019.2 |
| 20260506090830 | 80 | 307 | 1.0 | 4.0 | 0.00 | 0.00 | 0.00 | 82 | 1019.0 |
| 20260506090328 | 80 | 49 | 1.0 | 2.0 | 0.00 | 0.00 | 0.00 | 82 | 1019.0 |
| 20260506085824 | 80 | 67 | 2.0 | 3.0 | 0.00 | 0.00 | 0.00 | 81 | 1018.9 |
| 20260506085320 | 80 | 244 | 2.0 | 3.0 | 0.00 | 0.00 | 0.00 | 81 | 1019.1 |
| 20260506084817 | 80 | 323 | 1.0 | 2.0 | 0.00 | 0.00 | 0.00 | 81 | 1019.0 |
| 20260506084314 | 80 | 300 | 2.0 | 3.0 | 0.00 | 0.00 | 0.00 | 80 | 1019.0 |
| 20260506083810 | 80 | 349 | 1.0 | 2.0 | 0.00 | 0.00 | 0.00 | 80 | 1019.0 |
| 20260506083308 | 80 | 78 | 4.0 | 6.0 | 0.00 | 0.00 | 0.00 | 80 | 1018.8 |
| 20260506082806 | 80 | 66 | 1.0 | 4.0 | 0.00 | 0.00 | 0.00 | 80 | 1019.0 |
| 20260506082304 | 80 | 333 | 2.0 | 7.0 | 0.00 | 0.00 | 0.00 | 80 | 1018.9 |
| 20260506081758 | 80 | 208 | 1.0 | 3.0 | 0.00 | 0.00 | 0.00 | 80 | 1019.0 |
| 20260506081256 | 80 | 51 | 1.0 | 3.0 | 0.00 | 0.00 | 0.00 | 81 | 1018.9 |
| 20260506080754 | 80 | 336 | 3.0 | 8.0 | 0.00 | 0.00 | 0.00 | 81 | 1018.7 |
| 20260506080250 | 80 | 104 | 2.0 | 4.0 | 0.00 | 0.00 | 0.00 | 81 | 1018.8 |
| 20260506073234 | 80 | 247 | 1.0 | 4.0 | 0.00 | 0.00 | 0.00 | 81 | 1018.6 |
| 20260506072731 | 80 | 12 | 2.0 | 6.0 | 0.00 | 0.00 | 0.00 | 81 | 1018.4 |
| 20260506072228 | 80 | 1 | 1.0 | 7.0 | 0.00 | 0.00 | 0.00 | 81 | 1018.6 |
| 20260506071726 | 80 | 287 | 2.0 | 3.0 | 0.00 | 0.00 | 0.00 | 81 | 1018.6 |
| 20260506071224 | 80 | 80 | 4.0 | 6.0 | 0.00 | 0.00 | 0.00 | 81 | 1018.7 |
| 20260506070720 | 80 | 330 | 1.0 | 6.0 | 0.00 | 0.00 | 0.00 | 81 | 1018.7 |
| 20260506070217 | 80 | 25 | 1.0 | 3.0 | 0.00 | 0.00 | 0.00 | 81 | 1018.8 |
| 20260506062154 | 80 | 17 | 2.0 | 7.0 | 0.00 | 0.00 | 0.00 | 80 | 1018.7 |
| 20260506061650 | 80 | 332 | 1.0 | 6.0 | 0.00 | 0.00 | 0.00 | 80 | 1019.1 |
| 20260506061148 | 80 | 98 | 3.0 | 3.0 | 0.00 | 0.00 | 0.00 | 80 | 1018.8 |
| 20260506060646 | 80 | 37 | 4.0 | 7.0 | 0.00 | 0.00 | 0.00 | 80 | 1019.1 |
| 20260506060143 | 81 | 110 | 3.0 | 6.0 | 0.00 | 0.00 | 0.00 | 80 | 1019.1 |
| 20260506051115 | 81 | 5 | 1.0 | 7.0 | 0.00 | 0.00 | 0.00 | 80 | 1019.9 |
| 20260506050613 | 81 | 352 | 2.0 | 4.0 | 0.00 | 0.00 | 0.00 | 80 | 1019.9 |
| 20260506050110 | 81 | 324 | 2.0 | 4.0 | 0.00 | 0.00 | 0.00 | 80 | 1020.0 |
| 20260506045103 | 81 | 206 | 2.0 | 4.0 | 0.00 | 0.00 | 0.00 | 80 | 1020.0 |
| 20260506044601 | 81 | 85 | 2.0 | 4.0 | 0.00 | 0.00 | 0.00 | 80 | 1019.9 |
| 20260506044058 | 81 | 207 | 3.0 | 7.0 | 0.00 | 0.00 | 0.00 | 80 | 1019.8 |
| 20260506043555 | 81 | 64 | 2.0 | 3.0 | 0.00 | 0.00 | 0.00 | 80 | 1020.0 |
| 20260506043053 | 81 | 297 | 1.0 | 4.0 | 0.00 | 0.00 | 0.00 | 80 | 1020.0 |
| 20260506042552 | 81 | 54 | 2.0 | 8.0 | 0.00 | 0.00 | 0.00 | 80 | 1020.0 |
| 20260506042049 | 81 | 345 | 1.0 | 2.0 | 0.00 | 0.00 | 0.00 | 80 | 1020.1 |
| 20260506041548 | 81 | 347 | 2.0 | 7.0 | 0.00 | 0.00 | 0.00 | 80 | 1020.3 |
| 20260506041044 | 81 | 18 | 2.0 | 7.0 | 0.00 | 0.00 | 0.00 | 80 | 1020.2 |
| 20260506040542 | 81 | 2 | 1.0 | 3.0 | 0.00 | 0.00 | 0.00 | 80 | 1020.1 |
| 20260506040038 | 81 | 46 | 5.0 | 8.0 | 0.00 | 0.00 | 0.00 | 80 | 1020.0 |
| 20260506035535 | 81 | 328 | 3.0 | 6.0 | 0.00 | 0.00 | 0.00 | 80 | 1020.0 |
| 20260506035032 | 81 | 340 | 2.0 | 8.0 | 0.00 | 0.00 | 0.00 | 81 | 1020.2 |
| 20260506034529 | 81 | 343 | 1.0 | 6.0 | 0.00 | 0.00 | 0.00 | 81 | 1020.0 |
| 20260506034026 | 81 | 29 | 3.0 | 7.0 | 0.00 | 0.00 | 0.00 | 81 | 1020.0 |
| 20260506033523 | 81 | 98 | 1.0 | 4.0 | 0.00 | 0.00 | 0.00 | 81 | 1020.3 |
| 20260506033021 | 81 | 282 | 4.0 | 8.0 | 0.00 | 0.00 | 0.00 | 81 | 1020.2 |
| 20260506032518 | 81 | 42 | 2.0 | 6.0 | 0.00 | 0.00 | 0.00 | 81 | 1020.3 |
| 20260506032014 | 81 | 353 | 1.0 | 2.0 | 0.00 | 0.00 | 0.00 | 81 | 1020.2 |
| 20260506031512 | 81 | 336 | 1.0 | 2.0 | 0.00 | 0.00 | 0.00 | 80 | 1020.2 |
| 20260506031009 | 81 | 10 | 1.0 | 2.0 | 0.00 | 0.00 | 0.00 | 80 | 1020.2 |
| 20260506030507 | 81 | 334 | 1.0 | 4.0 | 0.00 | 0.00 | 0.00 | 80 | 1020.2 |
| 20260506030004 | 81 | 323 | 1.0 | 3.0 | 0.00 | 0.00 | 0.00 | 80 | 1020.0 |
| 20260506025500 | 81 | 19 | 2.0 | 3.0 | 0.00 | 0.00 | 0.00 | 81 | 1020.0 |
| 20260506024957 | 81 | 332 | 1.0 | 6.0 | 0.00 | 0.00 | 0.00 | 81 | 1020.1 |
| 20260506024454 | 81 | 36 | 2.0 | 3.0 | 0.00 | 0.00 | 0.00 | 81 | 1019.9 |
| 20260506023949 | 81 | 91 | 4.0 | 10.0 | 0.00 | 0.00 | 0.00 | 81 | 1019.8 |
| 20260506023447 | 81 | 101 | 2.0 | 4.0 | 0.00 | 0.00 | 0.00 | 81 | 1019.8 |
| 20260506022943 | 81 | 168 | 2.0 | 4.0 | 0.00 | 0.00 | 0.00 | 81 | 1019.8 |
| 20260506022441 | 81 | 357 | 2.0 | 2.0 | 0.00 | 0.00 | 0.00 | 81 | 1019.8 |
| 20260506021939 | 81 | 311 | 1.0 | 3.0 | 0.00 | 0.00 | 0.00 | 81 | 1019.7 |
| 20260506021436 | 81 | 19 | 4.0 | 6.0 | 0.00 | 0.00 | 0.00 | 81 | 1019.6 |
| 20260506020933 | 81 | 349 | 0.0 | 0.0 | 0.00 | 0.00 | 0.00 | 81 | 1019.6 |
| 20260506020431 | 81 | 50 | 1.0 | 6.0 | 0.00 | 0.00 | 0.00 | 81 | 1019.5 |
| 20260506015927 | 81 | 351 | 2.0 | 3.0 | 0.00 | 0.00 | 0.00 | 81 | 1019.6 |
| 20260506015425 | 81 | 43 | 2.0 | 3.0 | 0.00 | 0.00 | 0.00 | 81 | 1019.5 |
| 20260506014922 | 81 | 53 | 2.0 | 6.0 | 0.00 | 0.00 | 0.00 | 81 | 1019.4 |
| 20260506014419 | 81 | 346 | 0.0 | 4.0 | 0.00 | 0.00 | 0.00 | 81 | 1019.4 |
| 20260506013915 | 81 | 30 | 3.0 | 4.0 | 0.00 | 0.00 | 0.00 | 81 | 1019.2 |
| 20260506013414 | 81 | 239 | 1.0 | 3.0 | 0.00 | 0.00 | 0.00 | 81 | 1019.4 |
| 20260506012909 | 81 | 313 | 0.0 | 3.0 | 0.00 | 0.00 | 0.00 | 80 | 1019.3 |
| 20260506012406 | 81 | 44 | 2.0 | 3.0 | 0.00 | 0.00 | 0.00 | 80 | 1019.2 |
| 20260506011903 | 81 | 356 | 2.0 | 3.0 | 0.00 | 0.00 | 0.00 | 80 | 1019.1 |
| 20260506011400 | 81 | 83 | 2.0 | 6.0 | 0.00 | 0.00 | 0.00 | 80 | 1019.2 |
| 20260506010857 | 81 | 39 | 2.0 | 7.0 | 0.00 | 0.00 | 0.00 | 80 | 1018.9 |
| 20260506010355 | 81 | 31 | 2.0 | 4.0 | 0.00 | 0.00 | 0.00 | 80 | 1018.9 |
| 20260506005852 | 81 | 69 | 3.0 | 4.0 | 0.00 | 0.00 | 0.00 | 80 | 1018.9 |
| 20260506005349 | 81 | 4 | 4.0 | 6.0 | 0.00 | 0.00 | 0.00 | 79 | 1018.9 |
| 20260506004844 | 81 | 82 | 3.0 | 7.0 | 0.00 | 0.00 | 0.00 | 79 | 1018.9 |
| 20260506004343 | 81 | 226 | 4.0 | 6.0 | 0.00 | 0.00 | 0.00 | 79 | 1018.9 |
| 20260506003838 | 81 | 2 | 4.0 | 7.0 | 0.00 | 0.00 | 0.00 | 79 | 1018.9 |
| 20260506003335 | 81 | 15 | 2.0 | 8.0 | 0.00 | 0.00 | 0.00 | 79 | 1018.6 |
| 20260506002831 | 81 | 50 | 1.0 | 6.0 | 0.00 | 0.00 | 0.00 | 79 | 1018.7 |
| 20260506002328 | 81 | 32 | 2.0 | 6.0 | 0.00 | 0.00 | 0.00 | 80 | 1018.4 |
| 20260506001823 | 81 | 42 | 5.0 | 8.0 | 0.00 | 0.00 | 0.00 | 80 | 1018.5 |
| 20260506001321 | 81 | 145 | 5.0 | 11.0 | 0.00 | 0.00 | 0.00 | 80 | 1018.5 |
| 20260506000818 | 81 | 19 | 2.0 | 7.0 | 0.00 | 0.00 | 0.00 | 79 | 1018.6 |
| 20260506000316 | 82 | 16 | 4.0 | 6.0 | 0.00 | 0.00 | 0.00 | 79 | 1018.5 |
| 20260505235812 | 82 | 57 | 2.0 | 6.0 | 0.00 | 0.00 | 0.00 | 80 | 1018.6 |
| 20260505235310 | 82 | 8 | 4.0 | 6.0 | 0.00 | 0.00 | 0.00 | 79 | 1018.5 |
| 20260505234806 | 82 | 353 | 1.0 | 4.0 | 0.00 | 0.00 | 0.00 | 79 | 1018.5 |
| 20260505234304 | 82 | 40 | 4.0 | 7.0 | 0.00 | 0.00 | 0.00 | 79 | 1018.4 |
| 20260505233801 | 82 | 39 | 2.0 | 4.0 | 0.00 | 0.00 | 0.00 | 78 | 1018.4 |
| 20260505233259 | 82 | 25 | 3.0 | 6.0 | 0.00 | 0.00 | 0.00 | 78 | 1018.1 |
| 20260505232755 | 82 | 11 | 5.0 | 8.0 | 0.00 | 0.00 | 0.00 | 77 | 1018.1 |
| 20260505232253 | 82 | 57 | 3.0 | 9.0 | 0.00 | 0.00 | 0.00 | 77 | 1018.0 |
| 20260505231749 | 82 | 50 | 5.0 | 10.0 | 0.00 | 0.00 | 0.00 | 76 | 1017.9 |
| 20260505231248 | 82 | 46 | 2.0 | 6.0 | 0.00 | 0.00 | 0.00 | 77 | 1018.2 |
| 20260505230746 | 82 | 9 | 2.0 | 8.0 | 0.00 | 0.00 | 0.00 | 76 | 1018.0 |
| 20260505230242 | 83 | 15 | 4.0 | 8.0 | 0.00 | 0.00 | 0.00 | 76 | 1018.0 |
| 20260505225739 | 83 | 31 | 4.0 | 7.0 | 0.00 | 0.00 | 0.00 | 76 | 1017.8 |
| 20260505225236 | 83 | 46 | 2.0 | 3.0 | 0.00 | 0.00 | 0.00 | 76 | 1017.6 |
| 20260505224731 | 83 | 27 | 1.0 | 8.0 | 0.00 | 0.00 | 0.00 | 76 | 1017.8 |
| 20260505224229 | 83 | 31 | 2.0 | 14.0 | 0.00 | 0.00 | 0.00 | 75 | 1017.8 |
| 20260505223727 | 83 | 30 | 1.0 | 7.0 | 0.00 | 0.00 | 0.00 | 75 | 1017.5 |
| 20260505223223 | 83 | 18 | 2.0 | 6.0 | 0.00 | 0.00 | 0.00 | 75 | 1017.3 |
| 20260505222719 | 84 | 28 | 4.0 | 11.0 | 0.00 | 0.00 | 0.00 | 74 | 1017.7 |
| 20260505222215 | 84 | 348 | 1.0 | 4.0 | 0.00 | 0.00 | 0.00 | 73 | 1017.6 |
| 20260505221713 | 84 | 11 | 1.0 | 7.0 | 0.00 | 0.00 | 0.00 | 72 | 1017.5 |
| 20260505221209 | 84 | 32 | 4.0 | 8.0 | 0.00 | 0.00 | 0.00 | 71 | 1017.4 |
| 20260505220706 | 84 | 301 | 2.0 | 8.0 | 0.00 | 0.00 | 0.00 | 71 | 1017.5 |
| 20260505220204 | 85 | 120 | 5.0 | 8.0 | 0.00 | 0.00 | 0.00 | 70 | 1017.4 |
| 20260505215701 | 85 | 343 | 3.0 | 9.0 | 0.00 | 0.00 | 0.00 | 69 | 1017.7 |
| 20260505215159 | 85 | 39 | 4.0 | 7.0 | 0.00 | 0.00 | 0.00 | 68 | 1017.6 |
| 20260505214657 | 86 | 17 | 3.0 | 6.0 | 0.00 | 0.00 | 0.00 | 67 | 1017.4 |
| 20260505214154 | 86 | 26 | 1.0 | 3.0 | 0.00 | 0.00 | 0.00 | 67 | 1017.4 |
| 20260505213651 | 86 | 64 | 3.0 | 10.0 | 0.00 | 0.00 | 0.00 | 67 | 1017.6 |
| 20260505213148 | 87 | 326 | 4.0 | 7.0 | 0.00 | 0.00 | 0.00 | 65 | 1017.3 |
| 20260505212644 | 87 | 336 | 2.0 | 6.0 | 0.00 | 0.00 | 0.00 | 64 | 1017.3 |
| 20260505212142 | 87 | 340 | 0.0 | 4.0 | 0.00 | 0.00 | 0.00 | 63 | 1017.3 |
| 20260505211639 | 87 | 184 | 2.0 | 4.0 | 0.00 | 0.00 | 0.00 | 64 | 1017.1 |
| 20260505211136 | 88 | 350 | 3.0 | 4.0 | 0.00 | 0.00 | 0.00 | 62 | 1017.3 |
| 20260505210632 | 87 | 109 | 2.0 | 6.0 | 0.00 | 0.00 | 0.00 | 61 | 1017.4 |
| 20260505210129 | 87 | 249 | 2.0 | 2.0 | 0.00 | 0.00 | 0.00 | 65 | 1017.4 |
| 20260505205626 | 87 | 9 | 2.0 | 10.0 | 0.00 | 0.00 | 0.00 | 65 | 1017.1 |
| 20260505205125 | 88 | 4 | 1.0 | 4.0 | 0.00 | 0.00 | 0.00 | 64 | 1017.2 |
| 20260505204621 | 87 | 331 | 2.0 | 6.0 | 0.00 | 0.00 | 0.00 | 63 | 1017.0 |
| 20260505204119 | 88 | 54 | 5.0 | 13.0 | 0.00 | 0.00 | 0.00 | 61 | 1017.1 |
| 20260505203615 | 88 | 336 | 3.0 | 7.0 | 0.00 | 0.00 | 0.00 | 63 | 1017.3 |
| 20260505203113 | 88 | 60 | 4.0 | 15.0 | 0.00 | 0.00 | 0.00 | 63 | 1017.2 |
| 20260505202608 | 88 | 38 | 3.0 | 9.0 | 0.00 | 0.00 | 0.00 | 63 | 1017.2 |
| 20260505202104 | 88 | 320 | 3.0 | 7.0 | 0.00 | 0.00 | 0.00 | 64 | 1017.2 |
| 20260505201601 | 88 | 56 | 2.0 | 10.0 | 0.00 | 0.00 | 0.00 | 63 | 1017.3 |
| 20260505201059 | 89 | 0 | 4.0 | 9.0 | 0.00 | 0.00 | 0.00 | 61 | 1017.3 |
| 20260505200557 | 88 | 190 | 4.0 | 8.0 | 0.00 | 0.00 | 0.00 | 62 | 1017.4 |
| 20260505200053 | 88 | 278 | 2.0 | 8.0 | 0.00 | 0.00 | 0.00 | 63 | 1017.4 |
| 20260505195549 | 89 | 353 | 3.0 | 11.0 | 0.00 | 0.00 | 0.00 | 63 | 1017.7 |
| 20260505195047 | 89 | 119 | 4.0 | 9.0 | 0.00 | 0.00 | 0.00 | 61 | 1017.5 |
| 20260505194544 | 89 | 312 | 1.0 | 6.0 | 0.00 | 0.00 | 0.00 | 61 | 1017.4 |
| 20260505194039 | 89 | 337 | 3.0 | 7.0 | 0.00 | 0.00 | 0.00 | 60 | 1017.5 |
| 20260505193537 | 89 | 64 | 3.0 | 8.0 | 0.00 | 0.00 | 0.00 | 62 | 1017.2 |
| 20260505193034 | 89 | 168 | 2.0 | 8.0 | 0.00 | 0.00 | 0.00 | 62 | 1017.7 |
| 20260505192532 | 89 | 169 | 4.0 | 8.0 | 0.00 | 0.00 | 0.00 | 63 | 1017.6 |
| 20260505192030 | 89 | 332 | 4.0 | 8.0 | 0.00 | 0.00 | 0.00 | 62 | 1017.5 |
| 20260505191528 | 90 | 35 | 4.0 | 8.0 | 0.00 | 0.00 | 0.00 | 62 | 1017.4 |
| 20260505191026 | 89 | 73 | 4.0 | 9.0 | 0.00 | 0.00 | 0.00 | 63 | 1017.4 |
| 20260505190520 | 90 | 356 | 3.0 | 6.0 | 0.00 | 0.00 | 0.00 | 62 | 1017.8 |
| 20260505190016 | 89 | 272 | 3.0 | 7.0 | 0.00 | 0.00 | 0.00 | 62 | 1017.7 |
| 20260505185513 | 90 | 39 | 5.0 | 11.0 | 0.00 | 0.00 | 0.00 | 62 | 1017.8 |
| 20260505185009 | 90 | 302 | 3.0 | 8.0 | 0.00 | 0.00 | 0.00 | 61 | 1017.7 |
| 20260505184507 | 89 | 349 | 2.0 | 6.0 | 0.00 | 0.00 | 0.00 | 63 | 1017.9 |
| 20260505184003 | 89 | 213 | 5.0 | 11.0 | 0.00 | 0.00 | 0.00 | 62 | 1018.0 |
| 20260505183500 | 89 | 189 | 5.0 | 9.0 | 0.00 | 0.00 | 0.00 | 62 | 1018.1 |
| 20260505182956 | 89 | 309 | 2.0 | 10.0 | 0.00 | 0.00 | 0.00 | 63 | 1018.1 |
| 20260505182453 | 90 | 1 | 2.0 | 9.0 | 0.00 | 0.00 | 0.00 | 62 | 1018.0 |
| 20260505181949 | 90 | 336 | 4.0 | 6.0 | 0.00 | 0.00 | 0.00 | 61 | 1018.2 |
| 20260505181447 | 90 | 185 | 2.0 | 4.0 | 0.00 | 0.00 | 0.00 | 62 | 1018.2 |
| 20260505180944 | 90 | 175 | 3.0 | 10.0 | 0.00 | 0.00 | 0.00 | 62 | 1018.2 |
| 20260505180440 | 91 | 154 | 4.0 | 10.0 | 0.00 | 0.00 | 0.00 | 62 | 1018.2 |
| 20260505175937 | 91 | 48 | 2.0 | 7.0 | 0.00 | 0.00 | 0.00 | 61 | 1018.2 |
| 20260505175433 | 90 | 338 | 2.0 | 4.0 | 0.00 | 0.00 | 0.00 | 62 | 1018.6 |
| 20260505174930 | 90 | 302 | 4.0 | 6.0 | 0.00 | 0.00 | 0.00 | 62 | 1018.5 |
| 20260505174427 | 91 | 92 | 6.0 | 9.0 | 0.00 | 0.00 | 0.00 | 61 | 1018.8 |
| 20260505173923 | 91 | 327 | 1.0 | 6.0 | 0.00 | 0.00 | 0.00 | 62 | 1018.6 |
| 20260505173420 | 90 | 73 | 2.0 | 7.0 | 0.00 | 0.00 | 0.00 | 61 | 1018.8 |
| 20260505172917 | 90 | 58 | 2.0 | 10.0 | 0.00 | 0.00 | 0.00 | 63 | 1019.1 |
| 20260505172415 | 90 | 351 | 2.0 | 8.0 | 0.00 | 0.00 | 0.00 | 62 | 1019.1 |
| 20260505171914 | 90 | 310 | 5.0 | 8.0 | 0.00 | 0.00 | 0.00 | 63 | 1019.1 |
| 20260505171411 | 89 | 41 | 4.0 | 8.0 | 0.00 | 0.00 | 0.00 | 63 | 1019.2 |
| 20260505170908 | 89 | 343 | 2.0 | 9.0 | 0.00 | 0.00 | 0.00 | 62 | 1019.3 |
| 20260505170405 | 89 | 49 | 2.0 | 6.0 | 0.00 | 0.00 | 0.00 | 62 | 1019.4 |
| 20260505165900 | 89 | 264 | 6.0 | 9.0 | 0.00 | 0.00 | 0.00 | 63 | 1019.4 |
| 20260505165356 | 89 | 18 | 2.0 | 7.0 | 0.00 | 0.00 | 0.00 | 63 | 1019.4 |
| 20260505164852 | 89 | 244 | 4.0 | 7.0 | 0.00 | 0.00 | 0.00 | 62 | 1019.5 |
| 20260505164348 | 89 | 279 | 3.0 | 7.0 | 0.00 | 0.00 | 0.00 | 64 | 1019.5 |
| 20260505163847 | 89 | 162 | 3.0 | 7.0 | 0.00 | 0.00 | 0.00 | 64 | 1019.6 |
| 20260505163345 | 88 | 150 | 5.0 | 9.0 | 0.00 | 0.00 | 0.00 | 65 | 1019.6 |
| 20260505162844 | 89 | 85 | 2.0 | 7.0 | 0.00 | 0.00 | 0.00 | 66 | 1019.8 |
| 20260505162339 | 89 | 263 | 2.0 | 9.0 | 0.00 | 0.00 | 0.00 | 65 | 1019.6 |
| 20260505161837 | 88 | 103 | 4.0 | 7.0 | 0.00 | 0.00 | 0.00 | 66 | 1019.9 |
| 20260505161334 | 88 | 186 | 2.0 | 8.0 | 0.00 | 0.00 | 0.00 | 66 | 1019.9 |
| 20260505160831 | 87 | 229 | 5.0 | 7.0 | 0.00 | 0.00 | 0.00 | 66 | 1019.9 |
| 20260505160329 | 87 | 20 | 4.0 | 8.0 | 0.00 | 0.00 | 0.00 | 67 | 1019.9 |
| 20260505153308 | 88 | 262 | 3.0 | 4.0 | 0.00 | 0.00 | 0.00 | 67 | 1019.9 |
| 20260505152805 | 88 | 27 | 3.0 | 6.0 | 0.00 | 0.00 | 0.00 | 66 | 1020.0 |
| 20260505152305 | 88 | 92 | 3.0 | 9.0 | 0.00 | 0.00 | 0.00 | 67 | 1019.9 |
| 20260505151801 | 88 | 207 | 3.0 | 9.0 | 0.00 | 0.00 | 0.00 | 67 | 1020.0 |
| 20260505151259 | 88 | 294 | 2.0 | 7.0 | 0.00 | 0.00 | 0.00 | 66 | 1020.1 |
| 20260505150756 | 88 | 165 | 4.0 | 7.0 | 0.00 | 0.00 | 0.00 | 66 | 1020.1 |
| 20260505150253 | 88 | 86 | 2.0 | 4.0 | 0.00 | 0.00 | 0.00 | 65 | 1020.1 |
| 20260505140223 | 89 | 34 | 1.0 | 4.0 | 0.00 | 0.00 | 0.00 | 65 | 1020.5 |
| 20260505130147 | 86 | 105 | 5.0 | 10.0 | 0.00 | 0.00 | 0.00 | 70 | 1020.3 |
| 20260505124636 | 86 | 83 | 2.0 | 8.0 | 0.00 | 0.00 | 0.00 | 73 | 1020.3 |
| 20260505124133 | 85 | 342 | 2.0 | 4.0 | 0.00 | 0.00 | 0.00 | 72 | 1020.1 |
| 20260505123629 | 85 | 8 | 4.0 | 7.0 | 0.00 | 0.00 | 0.00 | 71 | 1020.2 |
| 20260505123126 | 85 | 188 | 3.0 | 6.0 | 0.00 | 0.00 | 0.00 | 72 | 1020.2 |
| 20260505122623 | 85 | 293 | 2.0 | 3.0 | 0.00 | 0.00 | 0.00 | 73 | 1020.2 |
| 20260505122120 | 85 | 326 | 2.0 | 6.0 | 0.00 | 0.00 | 0.00 | 73 | 1020.1 |
| 20260505121616 | 85 | 16 | 5.0 | 8.0 | 0.00 | 0.00 | 0.00 | 73 | 1020.0 |
| 20260505121113 | 84 | 77 | 2.0 | 6.0 | 0.00 | 0.00 | 0.00 | 74 | 1019.9 |
| 20260505120609 | 84 | 9 | 2.0 | 4.0 | 0.00 | 0.00 | 0.00 | 74 | 1019.7 |
| 20260505120105 | 84 | 354 | 3.0 | 7.0 | 0.00 | 0.00 | 0.00 | 74 | 1019.8 |
| 20260505115600 | 84 | 19 | 2.0 | 7.0 | 0.00 | 0.00 | 0.00 | 74 | 1019.9 |
| 20260505115057 | 84 | 120 | 1.0 | 4.0 | 0.00 | 0.00 | 0.00 | 74 | 1019.8 |
| 20260505114555 | 84 | 356 | 2.0 | 7.0 | 0.00 | 0.00 | 0.00 | 75 | 1019.7 |
| 20260505114050 | 83 | 20 | 3.0 | 3.0 | 0.00 | 0.00 | 0.00 | 76 | 1019.7 |
| 20260505113547 | 83 | 354 | 1.0 | 3.0 | 0.00 | 0.00 | 0.00 | 77 | 1019.6 |
| 20260505113044 | 82 | 183 | 2.0 | 6.0 | 0.00 | 0.00 | 0.00 | 78 | 1019.4 |
| 20260505112540 | 82 | 30 | 4.0 | 8.0 | 0.00 | 0.00 | 0.00 | 78 | 1019.7 |
| 20260505112039 | 82 | 348 | 1.0 | 4.0 | 0.00 | 0.00 | 0.00 | 79 | 1019.7 |
| 20260505111538 | 82 | 349 | 1.0 | 4.0 | 0.00 | 0.00 | 0.00 | 80 | 1019.4 |
| 20260505111034 | 81 | 16 | 0.0 | 4.0 | 0.00 | 0.00 | 0.00 | 81 | 1019.3 |
| 20260505110531 | 81 | 321 | 2.0 | 4.0 | 0.00 | 0.00 | 0.00 | 81 | 1019.3 |